アトラス彗星

C/2021 K1 ( ATLAS )

English version
Home page
Updated on September 18, 2021

---------------------------------------------------------------------

・ プロフィール

発見日 2021年5月14日
発見光度 16.5等
発見者 Asteroid Terrestrial-Impact Last Alert System (ATLAS) search program

・ 写真集

・ 軌道要素

Epoch 2021 July 5.0 TT = JDT 2459400.5
T 2021 May 4.60905 TT                                   Rudenko
q   2.4978956            (2000.0)            P               Q
n   0.02164344     Peri.  184.31351     +0.81944002     +0.54523616
a  12.7522025      Node   140.90574     -0.51712764     +0.83627629
e   0.8041205      Incl.   16.27615     -0.24717817     +0.05796122
P  45.5
From 227 observations 2020 Apr. 20-2021 July 9, mean residual 0".3.

・ 星図

・ 光度変化

        m1 = 5.5 + 5 logΔ + 22.0 log r(t - 35)

---------------------------------------------------------------------

軌道要素はM.P.E.C. 2021-O56に掲載されたものです。
星図はステラナビゲータ Ver.10 (アストロアーツ) で作成したものです。
光度グラフはComet for Windowsで作成したものです。

---------------------------------------------------------------------

Copyright(C) Seiichi Yoshida (comet@aerith.net). All rights reserved.